AT170 Weather Reports


Display with metric or nautical units.
time (UTC)temp
F
wind
direction
speed
MPH
gust
MPH
rain 1hr
in
rain 24hr
in
rain mn
in
humidity
%
barometer
mb
20260506230005 51 349 0.0 0.0 0.00 0.00 0.00 63 1009.2
20260506223005 52 349 0.0 0.0 0.00 0.00 0.00 61 1008.9
20260506220007 53 349 0.0 0.0 0.00 0.00 0.00 58 1008.9
20260506213004 54 349 0.0 0.0 0.00 0.00 0.00 56 1009.0
20260506210005 55 349 0.0 0.0 0.00 0.00 0.00 52 1008.8
20260506203005 58 349 0.0 0.0 0.00 0.00 0.00 49 1008.7
20260506200005 60 349 0.0 0.0 0.00 0.00 0.00 44 1008.7
20260506193005 63 349 0.0 0.0 0.00 0.00 0.00 40 1008.5
20260506190004 65 349 0.0 0.0 0.00 0.00 0.00 37 1008.4
20260506183005 66 349 0.0 0.0 0.00 0.00 0.00 32 1008.5
20260506180005 67 349 0.0 3.0 0.00 0.00 0.00 33 1008.4
20260506173005 66 349 0.0 0.0 0.00 0.00 0.00 33 1008.6
20260506170004 65 349 0.0 0.0 0.00 0.00 0.00 35 1008.9
20260506163005 65 349 0.0 0.0 0.00 0.00 0.00 36 1008.9
20260506160005 66 349 0.0 3.0 0.00 0.00 0.00 36 1008.9
20260506153005 67 349 0.0 7.0 0.00 0.00 0.00 39 1009.0
20260506150005 67 355 1.0 7.0 0.00 0.00 0.00 40 1009.4
20260506143005 66 349 0.0 6.0 0.00 0.00 0.00 40 1009.7
20260506140004 65 350 0.0 6.0 0.00 0.00 0.00 42 1010.2
20260506130005 64 350 0.0 3.0 0.00 0.00 0.00 46 1010.7
20260506123005 65 350 1.0 9.0 0.00 0.00 0.00 45 1011.0
20260506120005 61 349 0.0 3.0 0.00 0.00 0.00 50 1011.3
20260506113005 59 349 0.0 0.0 0.00 0.00 0.00 51 1011.6
20260506110005 59 349 0.0 3.0 0.00 0.00 0.00 51 1011.6
20260506100004 60 348 0.0 3.0 0.00 0.00 0.00 52 1012.1
20260506093004 59 343 0.0 3.0 0.00 0.00 0.00 56 1012.0
20260506090006 56 337 0.0 2.0 0.00 0.00 0.00 62 1012.1
20260506083004 54 338 0.0 3.0 0.00 0.00 0.00 65 1012.1
20260506073004 50 325 0.0 2.0 0.00 0.00 0.00 74 1012.2
20260506043005 43 325 0.0 0.0 0.00 0.00 0.00 81 1011.2
20260506040006 44 325 0.0 0.0 0.00 0.00 0.00 79 1011.2
20260506030005 47 325 0.0 0.0 0.00 0.00 0.00 73 1011.2
20260506023004 48 325 0.0 0.0 0.00 0.00 0.00 71 1011.2
20260506020005 48 325 0.0 0.0 0.00 0.00 0.00 72 1011.3
20260506013004 48 325 0.0 0.0 0.00 0.00 0.00 72 1011.3
20260506010005 49 325 0.0 0.0 0.00 0.00 0.00 70 1011.5
20260506003005 49 325 0.0 0.0 0.00 0.00 0.00 71 1011.8
20260506000004 49 325 0.0 0.0 0.00 0.00 0.00 69 1011.8
20260505233004 50 325 0.0 0.0 0.00 0.00 0.00 66 1011.6